This is the latest recevied weather packets stored in our database for station/object W4DHW-4. If no packets are shown the sender has not sent any weather packets the latest 1 day(s).
| Time | Temp. | Humidity | Pressure | Rain* | Wind** | Luminosity | Snow |
|---|---|---|---|---|---|---|---|
| 1778077830 | 16.11° C | 94% | 1011.7 hPa | 0 mm | - | 293 W/m² | - |
| 1778076923 | 15.56° C | 94% | 1012.1 hPa | 0 mm | - | 122 W/m² | - |
| 1778076318 | 15.56° C | 95% | 1012 hPa | 0 mm | - | 144 W/m² | - |
| 1778075408 | 15.56° C | 95% | 1012 hPa | 0 mm | - | 111 W/m² | - |
| 1778074800 | 15.56° C | 95% | 1012.3 hPa | 1.78 mm | - | 92 W/m² | - |
| 1778074194 | 15.56° C | 95% | 1012.1 hPa | 0 mm | - | 70 W/m² | - |
| 1778073285 | 15° C | 94% | 1011.8 hPa | 1.27 mm | - | 56 W/m² | - |
| 1778072982 | 15.56° C | 94% | 1012 hPa | 1.27 mm | - | 45 W/m² | - |
| 1778072075 | 15.56° C | 93% | 1011.6 hPa | 0 mm | - | 64 W/m² | - |
| 1778070259 | 15.56° C | 91% | 1011.2 hPa | 3.05 mm | - | 42 W/m² | - |
| 1778069654 | 15.56° C | 89% | 1011.7 hPa | 1.78 mm | - | 18 W/m² | - |
| 1778069351 | 15.56° C | 88% | 1011.6 hPa | 1.78 mm | - | 22 W/m² | - |
| 1778068746 | 16.11° C | 85% | 1011.5 hPa | 1.27 mm | - | 19 W/m² | - |
| 1778068444 | 16.67° C | 84% | 1011.5 hPa | 1.78 mm | - | 18 W/m² | - |
| 1778068142 | 16.67° C | 80% | 1011.8 hPa | 3.05 mm | - | 20 W/m² | - |
| 1778066931 | 17.22° C | 72% | 1011.3 hPa | 0 mm | - | 7 W/m² | - |
| 1778066024 | 17.78° C | 71% | 1011.3 hPa | 0 mm | - | 12 W/m² | - |
| 1778065418 | 17.78° C | 71% | 1010.9 hPa | 0 mm | - | 12 W/m² | - |
| 1778065115 | 17.78° C | 70% | 1011 hPa | 0 mm | - | 11 W/m² | - |
| 1778064509 | 17.78° C | 70% | 1010.7 hPa | 0 mm | - | 7 W/m² | - |
| 1778063904 | 17.78° C | 69% | 1011 hPa | 0 mm | - | 2 W/m² | - |
| 1778063299 | 17.78° C | 69% | 1010.5 hPa | 0 mm | - | 0 W/m² | - |
| 1778062694 | 17.78° C | 68% | 1010.9 hPa | 0 mm | - | 0 W/m² | - |
| 1778062088 | 17.78° C | 68% | 1011 hPa | 0 mm | - | 0 W/m² | - |
| 1778061484 | 17.78° C | 68% | 1010.9 hPa | 0 mm | - | 0 W/m² | - |
* Rain latest hour (hover to see other rain measurements)
** Current wind speed in m/s (hover to see current wind gust speed)